K8CWG Weather Reports


time (UTC)temp
C
wind
direction
speed
KPH
gust
KPH
rain 1hr
cm
rain 24hr
cm
rain mn
cm
humidity
%
barometer
mb
20260903024502 26 255 0.0 0.0 0.00 0.00 0.00 82 1015.5
20260903023002 26 255 0.0 0.0 0.00 0.00 0.00 81 1015.5
20260903021502 27 255 0.0 0.0 0.00 0.00 0.00 80 1015.5
20260903020005 27 255 0.0 0.0 0.00 0.00 0.00 78 1013.6
20260903014502 27 255 0.0 0.0 0.00 0.00 0.00 77 1015.6
20260903013001 28 255 0.0 0.0 0.00 0.00 0.00 75 1015.4
20260903011502 28 255 0.0 0.0 0.00 0.00 0.00 74 1015.3
20260903010003 28 255 0.0 0.0 0.00 0.00 0.00 72 1015.1
20260903004502 29 255 0.0 0.0 0.00 0.00 0.00 71 1015.0
20260903003003 30 255 0.0 0.0 0.00 0.00 0.00 70 1014.9
20260903001501 30 255 0.0 0.0 0.00 0.00 0.00 69 1014.8
20260903000004 31 255 0.0 0.0 0.00 0.00 0.00 67 1014.8
20260903000002 31 255 0.0 0.0 0.00 0.00 0.00 67 1012.9
20260902234501 31 255 0.0 0.0 0.00 0.00 0.00 65 1014.8
20260902233004 32 255 0.0 3.2 0.00 0.00 0.00 64 1014.8
20260902233002 32 255 0.0 3.2 0.00 0.00 0.00 64 1012.8
20260902231503 32 259 0.0 3.2 0.00 0.00 0.00 62 1014.9
20260902230004 32 214 0.0 1.6 0.00 0.00 0.00 61 1014.9
20260902230002 32 214 0.0 1.6 0.00 0.00 0.00 61 1013.0
20260902224502 33 250 3.2 6.4 0.00 0.00 0.00 60 1015.0
20260902223002 33 349 1.6 4.8 0.00 0.00 0.00 59 1014.9
20260902221502 33 252 3.2 6.4 0.00 0.00 0.00 58 1014.9
20260902220005 34 262 1.6 4.8 0.00 0.00 0.00 56 1013.0
20260902214502 33 241 1.6 6.4 0.00 0.00 0.00 56 1015.0
20260902213002 34 255 3.2 8.0 0.00 0.00 0.00 56 1015.2
20260902211501 35 250 3.2 6.4 0.00 0.00 0.00 54 1013.2
20260902210005 35 260 1.6 6.4 0.00 0.00 0.00 54 1015.2
20260902210002 35 260 1.6 6.4 0.00 0.00 0.00 54 1013.2
20260902204501 35 286 3.2 8.0 0.00 0.00 0.00 53 1015.3
20260902203002 34 282 4.8 12.9 0.00 0.00 0.00 53 1015.5
20260902201502 35 123 1.6 6.4 0.00 0.00 0.00 54 1015.5
20260902200004 35 264 3.2 9.7 0.00 0.00 0.00 52 1015.7
20260902194501 35 242 3.2 9.7 0.00 0.00 0.00 53 1015.8
20260902193002 35 249 4.8 11.3 0.00 0.00 0.00 52 1016.1
20260902191501 35 351 1.6 6.4 0.00 0.00 0.00 55 1016.1
20260902190004 35 296 3.2 9.7 0.00 0.00 0.00 54 1016.3
20260902184501 35 158 3.2 9.7 0.00 0.00 0.00 56 1016.3
20260902183002 34 252 4.8 11.3 0.00 0.00 0.00 56 1016.6
20260902181502 35 325 3.2 16.1 0.00 0.00 0.00 53 1016.6
20260902180007 35 87 3.2 16.1 0.00 0.00 0.00 53 1016.8
20260902180005 35 87 4.8 16.1 0.00 0.00 0.00 53 1014.8
20260902174502 34 298 6.4 17.7 0.00 0.00 0.00 55 1016.9
20260902173001 34 305 3.2 9.7 0.00 0.00 0.00 56 1017.0
20260902171502 33 110 4.8 17.7 0.00 0.00 0.00 58 1017.1
20260902170004 33 271 1.6 12.9 0.00 0.00 0.00 58 1015.3
20260902164501 33 250 4.8 14.5 0.00 0.00 0.00 63 1017.3
20260902163002 33 92 3.2 12.9 0.00 0.00 0.00 64 1017.4
20260902161503 32 242 6.4 17.7 0.00 0.00 0.00 63 1017.6
20260902160005 32 243 1.6 4.8 0.00 0.00 0.00 65 1017.7
20260902160002 32 243 0.0 4.8 0.00 0.00 0.00 65 1015.7
20260902154503 32 124 1.6 8.0 0.00 0.00 0.00 69 1016.0
20260902151502 31 251 3.2 8.0 0.00 0.00 0.00 71 1018.0
20260902150004 31 320 0.0 4.8 0.00 0.00 0.00 69 1018.0
20260902144502 30 313 1.6 4.8 0.00 0.00 0.00 72 1018.0
20260902143001 29 259 1.6 4.8 0.00 0.00 0.00 74 1017.9
20260902141503 28 262 1.6 4.8 0.00 0.00 0.00 75 1018.0
20260902140003 28 244 0.0 3.2 0.00 0.00 0.00 76 1018.0
20260902134502 27 252 1.6 4.8 0.00 0.00 0.00 78 1017.8
20260902133001 27 266 0.0 3.2 0.00 0.00 0.00 78 1017.9
20260902131501 26 252 3.2 4.8 0.00 0.00 0.00 81 1017.8
20260902130003 26 250 1.6 8.0 0.00 0.00 0.00 82 1017.8
20260902124504 25 257 0.0 4.8 0.00 0.00 0.00 86 1017.7
20260902124501 25 257 0.0 4.8 0.00 0.00 0.00 86 1015.9
20260902123002 24 247 0.0 4.8 0.00 0.00 0.00 89 1017.7
20260902121502 23 136 0.0 1.6 0.00 0.00 0.00 90 1017.5
20260902120003 23 146 0.0 1.6 0.00 0.00 0.00 91 1017.5
20260902114501 22 146 0.0 1.6 0.00 0.00 0.00 92 1017.3
20260902111502 22 146 0.0 1.6 0.00 0.00 0.00 93 1017.0
20260902110005 22 146 0.0 0.0 0.00 0.00 0.00 93 1017.0
20260902104501 22 146 0.0 0.0 0.00 0.00 0.00 93 1017.0
20260902103001 22 149 0.0 0.0 0.00 0.00 0.00 93 1017.0
20260902101502 22 149 0.0 1.6 0.00 0.00 0.00 92 1016.9
20260902100005 22 160 0.0 1.6 0.00 0.00 0.00 92 1016.9
20260902100003 22 160 0.0 1.6 0.00 0.00 0.00 92 1015.1
20260902094501 22 211 1.6 3.2 0.00 0.00 0.00 92 1016.9
20260902093002 23 165 1.6 3.2 0.00 0.00 0.00 91 1016.8
20260902091501 23 160 1.6 3.2 0.00 0.00 0.00 91 1016.7
20260902090002 23 177 1.6 6.4 0.00 0.00 0.00 91 1014.9
20260902084502 23 163 1.6 6.4 0.00 0.00 0.00 91 1016.4
20260902083002 22 157 0.0 0.0 0.00 0.00 0.00 92 1016.3
20260902080003 23 157 0.0 0.0 0.00 0.00 0.00 91 1016.2
20260902074501 23 157 0.0 0.0 0.00 0.00 0.00 91 1016.2
20260902073001 23 157 0.0 0.0 0.00 0.00 0.00 90 1016.1
20260902071502 23 157 0.0 0.0 0.00 0.00 0.00 90 1016.1
20260902070005 23 157 0.0 0.0 0.00 0.00 0.00 90 1016.0
20260902070003 23 157 0.0 0.0 0.00 0.00 0.00 90 1014.2
20260902064501 23 157 0.0 0.0 0.00 0.00 0.00 90 1016.0
20260902063001 23 157 0.0 0.0 0.00 0.00 0.00 90 1016.1
20260902061501 23 157 0.0 1.6 0.00 0.00 0.00 89 1016.1
20260902060007 23 157 0.0 0.0 0.00 0.00 0.00 89 1014.3
20260902054501 24 157 0.0 0.0 0.00 0.00 0.00 88 1016.2
20260902053001 24 157 0.0 0.0 0.00 0.00 0.00 88 1016.2
20260902051501 24 157 0.0 0.0 0.00 0.00 0.00 88 1016.2
20260902050007 24 157 0.0 0.0 0.00 0.00 0.00 87 1016.2
20260902050003 24 157 0.0 0.0 0.00 0.00 0.00 87 1014.3
20260902044503 25 157 0.0 0.0 0.00 0.00 0.00 87 1016.2
20260902044501 25 157 0.0 0.0 0.00 0.00 0.00 87 1014.3
20260902043003 25 157 0.0 0.0 0.00 0.00 0.00 86 1016.1
20260902043001 25 157 0.0 0.0 0.00 0.00 0.00 86 1014.2
20260902041500 25 157 0.0 0.0 0.00 0.00 0.00 86 1014.3
20260902040004 25 157 0.0 0.0 0.00 0.00 0.00 85 1014.4
20260902034503 25 157 0.0 0.0 0.00 0.00 0.00 86 1016.2
20260902034501 25 157 0.0 0.0 0.00 0.00 0.00 86 1014.3
20260902033002 25 157 0.0 0.0 0.00 0.00 0.00 86 1016.2
20260902031503 25 157 0.0 0.0 0.00 0.00 0.00 85 1016.1
20260902031501 25 157 0.0 0.0 0.00 0.00 0.00 85 1014.3
20260902030005 25 157 0.0 0.0 0.00 0.00 0.00 84 1016.2